Voltar ao catálogo

COSMOS 1275 DEB

AtivoPO
NORAD 13801·DEBRIS·🇷🇺 Russia

Lançado Jun 4, 1981 de Plesetsk Cosmodrome

Loading…

Próximas Passagens (próximas 24 horas)

TLE

AtualizadoSource: Space-Track

Época: Sep 14, 2026, 05:25 UTC

1 13801U 81053GV  26257.22628089  .00001937  00000-0  86996-3 0  9990
2 13801  82.7921 271.6947 0045755  43.9799 316.5009 14.21421047232240

Acompanhe COSMOS 1275 DEB em tempo real com AllMySat

Download on the App Store